Flag for Cambodia Weather past 2 weeks in Battambang, Cambodia

Now
81 °F

Passing clouds.


Feels Like: 86 °F
Forecast: 82 / 100 °F
Wind: 3 mph from Southwest

Location: Siemreap


UV Index: 10 (Very high)

Visibility: N/A


Pressure: 29.74 "Hg

Humidity: 84%

Dew point: 75 °F

Location of BattambangLocation

Historic Weather in Battambang

°F

Battambang temperature yesterday

Maximum temperature yesterday: 95 °F (at 12:00 PM)
Minimum temperature yesterday: 81 °F (at 12:30 AM)
Average temperature yesterday: 88 °F

Past Weeks' High & Low Weather Summary

 TemperatureHumidityPressure
High99 °F (Apr 3, 2:00 PM)100% (Apr 5, 7:00 PM)29.95 "Hg (Apr 5, 7:00 PM)
Low37 °F (Apr 7, 7:00 PM)36% (Apr 4, 1:00 PM)29.65 "Hg (Apr 3, 3:00 PM)
Average86 °F69%29.79 "Hg
* Reported Apr 3 1:00 AM — Apr 18 1:00 AM, Battambang, Weather by CustomWeather, © 2014

Note: Actual official high and low records may vary slightly from our data, if they occured in-between our weather recording intervals... More about our weather records

Advertising

Historic Weather Conditions — Data for Previous 24 hours

 ConditionsComfort  
Time TempWeatherWind HumidityBarometerVisibility
1:00 AM
Apr 18
81 °FPassing clouds.3 mph84%29.74 "HgN/A
12:00 AM82 °FPassing clouds.3 mph84%29.74 "HgN/A
11:30 PM
Apr 17
82 °FPassing clouds.3 mph84%29.77 "HgN/A
11:00 PM82 °FPassing clouds.6 mph79%29.77 "HgN/A
10:30 PM84 °FPassing clouds.3 mph74%29.77 "HgN/A
10:00 PM84 °FPassing clouds.5 mph74%29.77 "HgN/A
9:30 PM86 °FPassing clouds.2 mph79%29.74 "HgN/A
9:00 PM86 °FPassing clouds.No wind79%29.74 "HgN/A
8:30 PM86 °FPassing clouds.No wind75%29.71 "HgN/A
8:00 PM86 °FPassing clouds.No wind75%29.71 "HgN/A
7:30 PM88 °FPassing clouds.2 mph70%29.71 "HgN/A
7:00 PM88 °FPassing clouds.2 mph66%29.68 "HgN/A
6:30 PM90 °FPassing clouds.1 mph63%29.68 "HgN/A
6:00 PM90 °FScattered clouds.2 mph63%29.68 "HgN/A
5:30 PM91 °FScattered clouds.5 mph56%29.68 "HgN/A
5:00 PM91 °FScattered clouds.6 mph56%29.65 "HgN/A
4:30 PM93 °FScattered clouds.3 mph49%29.65 "HgN/A
4:00 PM91 °FScattered clouds.6 mph52%29.65 "HgN/A
3:30 PM93 °FScattered clouds.5 mph47%29.68 "HgN/A
3:00 PM93 °FScattered clouds.5 mph41%29.71 "HgN/A
2:30 PM93 °FScattered clouds.5 mph41%29.71 "HgN/A
2:00 PM90 °FScattered clouds.6 mph63%29.71 "HgN/A
1:30 PM90 °FBroken clouds.15 mph63%29.74 "HgN/A
1:00 PM95 °FBroken clouds.8 mph47%29.74 "HgN/A
12:30 PM93 °FScattered clouds.6 mph49%29.77 "HgN/A
12:00 PM95 °FScattered clouds.6 mph50%29.77 "HgN/A
11:30 AM93 °FScattered clouds.7 mph53%29.80 "HgN/A
11:00 AM91 °FBroken clouds.3 mph56%29.80 "HgN/A
10:30 AM88 °FBroken clouds.6 mph66%29.80 "HgN/A
10:00 AM88 °FScattered clouds.6 mph66%29.80 "HgN/A
9:30 AM88 °FScattered clouds.6 mph70%29.80 "HgN/A
9:00 AM86 °FScattered clouds.5 mph75%29.80 "HgN/A
8:30 AM86 °FSunny.6 mph75%29.80 "Hg10 mi
8:00 AM84 °FSunny.2 mph79%29.80 "Hg10 mi
7:30 AM82 °FClear.No wind84%29.80 "HgN/A
7:00 AM81 °FScattered clouds.No wind94%29.77 "HgN/A
Weather by CustomWeather, © 2014

See weather overview